Location: Fort Worth, Tx
(32.7431°N, 97.3695°W)
Time: 04:53:19
(UTC-04:00)

Vanguard 3 - Pass Details

Date: 26 February 2024
Orbit: 510 x 3234 km, 33.3° (Epoch: 24 April)

Event Time Altitude Azimuth Distance (km) Brightness Sun altitude
Rises 00:41:31 0° 272° (W) 7,183 12.2 -62.3°
Reaches altitude 10° 00:46:23 10° 273° (W) 6,169 11.7 -62.9°
Enters shadow 00:55:06 33° 275° (W) 4,338 10.7 -63.8°
